YAOGAN-33 02

导读

YAOGAN-33 02(遥感三十三号02星)是中国于北京时间2022年9月2日8时在酒泉卫星发射中心成功发射的遥感卫星,由长征二号丁运载火箭送入预定轨道。作为中国遥感系列卫星的成员,该卫星主要用于开展陆地资源勘测、农作物估产、灾害监测预报以及科学实验等应用任务,将为国民经济发展和空间科学研究提供有力支撑,也进一步完善了中国遥感卫星体系建设。

基本信息
目录编号:
53698
目录名称:
YAOGAN-33 02
国际标识:
2022-106A
轨道中心:
EARTH
卫星名称:
YAOGAN-33 02
卫星全名:
--
卫星状态:
在轨 (已飞行1388 天)
发射日期:
2022-09-02 UTC
国别 :
中国 (CN)
星等 :
--
轨道信息
数据来源 国际轨道数据 AOE轨道数据
星历时间 2026-06-21T12:10:50+0800
6小时前
查看轨道信息
2026-06-18T18:00:00+0800
3天前
查看轨道信息
半长轴 7075.426km 7075.437km
偏心率 0.0002907 0.0002273
轨道倾角 98.181° 98.184°
近地点辐角 122.707° 115.968°
升交点赤经 179.977° 177.267°
平近点角 237.441° 171.823°
近地点 695.232km 695.691km
远地点 699.346km 698.909km
周期 98.716分钟 98.716分钟
每日圈数 14.587266 14.587234
详细信息
使用方式:
暂无
2D轨道图
3D轨道图
轨道高度分析图
轨道倾角分析图
轨道综合分析图
查看轨道综合分析图